Regional Weather Roundup
Issued by NWS Kansas City/Pleasant Hill, MO

Home | Current Version | Previous Version | Text Only | Print | Product List | Glossary On
Versions: 1 2 3 4 5 6 7 8 9 10 11 12 13 14 15 16 17 18 19 20 21 22 23 24 25 26 27 28 29 30 31 32 33 34 35 36 37 38 39 40 41 42 43 44 45 46 47 48 49 50
174
ASUS43 KEAX 280710
RWREAX

WEATHER ROUNDUP FOR EASTERN KANSAS AND NORTHWEST MISSOURI
NATIONAL WEATHER SERVICE KANSAS CITY/PLEASANT HILL MO
200 AM CDT THU JUL 28 2016

KSZ040-057-103>105-MOZ028-029-037-043-280800-
...KANSAS CITY METROPOLITAN AREA...

CITY           SKY/WX    TMP DP  RH WIND       PRES   REMARKS
K.C. INTL      PTCLDY    74  71  91 W5        29.95F
K.C. DOWNTOWN  CLEAR     79  72  79 NW3       29.92F
LEES SUMMIT    CLEAR     77  72  84 SE5       29.95F
OLATHE - IXD   CLEAR     74  71  91 S3        29.96F
OLATHE - OJC   CLEAR     73  71  93 CALM      29.95F
LAWRENCE       PTCLDY    70  68  93 NW3       29.94F

$$

MOZ001>008-011>017-020>025-030>033-038>040-044>046-053-054-280800-
...NORTHERN AND CENTRAL MISSOURI...

CITY           SKY/WX    TMP DP  RH WIND       PRES   REMARKS
ST. JOSEPH     PTCLDY    73  71  93 N3        29.95S
MOSBY          MOSUNNY   72  70  94 CALM      29.93F
WHITEMAN AFB   PTCLDY    75  75 100 N2        29.92F
CLINTON        CLEAR     73  73 100 CALM      29.94F
SEDALIA        PTCLDY    77  73  87 CALM      29.94F
WARSAW         NOT AVBL
CHILLICOTHE      N/A     73  71  93 CALM      29.94F
KIRKSVILLE     CLEAR     69  67  93 CALM      29.93F FOG

$$

MOZ041-047>049-056>058-063>065-088>090-097-280800-
...EASTERN AND SOUTHERN MISSOURI...

CITY           SKY/WX    TMP DP  RH WIND       PRES   REMARKS
ST. LOUIS INTL MOCLDY    78  69  73 S5        29.91F
SPIRIT OF STL  CLOUDY    76  75  97 CALM      29.90F
COLUMBIA       CLEAR     75  73  93 S3        29.92F
JEFFERSON CITY PTCLDY    77  73  87 S3        29.91F
ROLLA          CLEAR     70  68  93 SW6       29.92F
OSAGE BEACH    PTCLDY    73  71  93 CALM      29.94
SPRINGFIELD    PTCLDY    73  69  87 S3        29.97S
BRANSON        FOG       72  72 100 CALM      29.98F VSB 1/2
JOPLIN         CLOUDY    72  71  97 CALM      29.96F
WEST PLAINS    CLEAR     71  68  90 CALM      29.97F

$$

IAZ060-094-KSZ022-034>040-054-083-096-NEZ052-066-093-280800-
...KANSAS...SOUTHEAST NEBRASKA AND IOWA...

CITY           SKY/WX    TMP DP  RH WIND       PRES   REMARKS
TOPEKA         CLEAR     75  70  84 CALM      29.95F
MANHATTAN      PTCLDY    74  69  85 CALM      29.96F
EMPORIA        CLEAR     75  73  93 CALM      29.96F
CHANUTE        CLEAR     75  73  93 CALM      29.94F
WICHITA        PTCLDY    75  71  87 CALM      29.97F
OMAHA          CLOUDY    72  68  87 NW6       29.97S
LINCOLN        PTCLDY    71  65  81 N12       30.01S
FALLS CITY     CLEAR     72  70  93 NW3       29.95F
LAMONI         CLEAR     70  69  97 N3        29.95F
DES MOINES     CLEAR     72  68  87 W3        29.93F

$$





USA.gov is the U.S. government's official web portal to all federal, state and local government web resources and services.